KOREASAT 5A (42984 NORAD) Tracking and Keplerian Element Data

This shows tracking and keplerian element data for the satellite.

Feedback or suggestion? Click here.




ElementValue
Catalog42984
NameKOREASAT 5A
Epoch Orbit414
Epoch Day348.45496828
Epoch Year2018
RAAN1.8326
Inclination0.0154
Eccentricity0.0001644
Argument of Perigee218.41
Mean Anonmoly139.7453
Mean Motion1.00267993
Decay Rate-3.47E-06
L11 42984U 17067A 18348.45496828 -.00000347 00000-0 00000+0 0 9992
L22 42984 0.0154 1.8326 0001644 218.4100 139.7453 1.00267993 4148

Live tracking and technical data element details for KOREASAT 5A (NORAD 42984). KOREASAT 5A can be tracked NOW for your location showing map with azimuth and elevation plus other details from your city location.

Track the satellite on the map from your city or location and see movement details for azimuth, elevation, latitude, longitude, range, height, and movement on the map or in text.







IsCatalogInMostPopularTable: catalog: 42984, numindb: 102
Update: records affected: 1



GetName: 42984 KOREASAT 5A

Hit Count: updated at: Sat, 15 Dec 2018 13:13:21 GMT